Погода в Проне

Россия / Тульская область     54°02′11″N   38°32′08″E
темп.,
°C
ветер,
м/с
пор.,
м/с
влажн.,
%
обл.,
%
осадки,
мм/ч
давл.,
гПа
погр.,
м
20 апреля, вт
вт2000:00+5в71291100 1.3 1020800
03:00+5в71387100 1.4 1019652
06:00+5в61192100 0.0 1019622
09:00+4всв71096100 0.0 1018566
12:00+2всв61196100 0.1 1018547
15:00+3всв61197100 1.1 1016621
18:00+3в71294100 0.3 1014693
21:00+2всв71497100 1.4 1010565
21 апреля, ср
ср2100:000св716100100 7.6 1005545
03:00+4св612100100 14.4 997344
06:00+2зюз71099100 3.8 997404
09:00+1юз81398100 3.9 1003680
12:00+2юз71295100 0.1 1007835
15:00+4юз61192100 0.1 1010976
18:00+4юз41090100 0.0 1012500
21:00+4ююз369267 0.0 1014147
22 апреля, чт
чт2200:00+4ю3794100 0.0 1014153
03:00+4ююз369398 0.0 1015131
06:00+4ююз249697 0.1 1016121
09:00+7юз468094 0.1 1017492
12:00+11юз566028 0.0 10171180
15:00+13ююз575241 0.0 10171601
18:00+12ююз586822 0.3 1017779
21:00+9ю498461 0.3 1018190
23 апреля, пт
пт2300:00+8ю4109022 0.0 1019184
03:00+7ююз389123 0.0 1019147
06:00+7ю389047 0.0 1019162
09:00+12ююз597135 0.1 1019451
12:00+16ююз79565 0.0 10191357
15:00+17ююз794742 1.3 10172257
18:00+15ю6115764 0.8 1017756
21:00+12ю614705 0.9 1017470
24 апреля, сб
сб2400:00+10ю5147456 0.0 1016377
03:00+9ююв6137782 0.0 1014320
06:00+8ю51285100 0.2 1013452
09:00+9зюз6985100 0.4 1012769
12:00+4з5795100 0.3 1014512
15:00+7юз4776100 1.1 1014962
18:00+8зюз7106799 0.3 10131146
21:00+4зюз611702 0.3 1014598